Regional Weather Roundup
Issued by NWS

Home | Current Version | Previous Version | Text Only | Print | Product List | Glossary Off
Versions: 1 2 3 4 5 6 7 8 9 10 11 12 13 14 15 16 17 18 19 20 21 22 23 24 25 26 27 28 29 30 31 32 33 34 35 36 37 38 39 40 41 42 43 44 45 46 47 48 49 50

944
ASUS44 KMEG 251310
RWRTN
TENNESSEE HOURLY STATE WEATHER ROUNDUP
NATIONAL WEATHER SERVICE MEMPHIS TN
800 AM CDT THU AUG 25 2016

TNZ002-004-019-021-049-052-054-088>092-251400-
WEST TENNESSEE

CITY           SKY/WX    TMP DP  RH WIND       PRES   REMARKS
MEMPHIS INTL   MOSUNNY   83  75  77 SW3       30.12R HX  90
NWS MEMPHIS      N/A     80 N/A N/A MISG        N/A
JACKSON        SUNNY     79  75  87 CALM      30.14R
DYERSBURG      SUNNY     84  75  74 MISG      30.13R HX  92
UNION CITY     SUNNY     79  79 100 S3        30.12R
PARIS          SUNNY     79  73  83 S3        30.15R
LEXINGTON      SUNNY     79  75  89 CALM      30.14S
$$

TNZ008-025-027-028-033-062-065-066-251400-
NORTH MIDDLE TENNESSEE

CITY           SKY/WX    TMP DP  RH WIND       PRES   REMARKS
NASHVILLE      MOSUNNY   77  72  84 S3        30.17R
CLARKSVILLE    SUNNY     78  74  87 CALM      30.15R
SMYRNA         MOSUNNY   77  72  83 MISG      30.16S
COOKEVILLE     SUNNY     77  73  88 S3        30.19S
CROSSVILLE     MOSUNNY   72  68  87 VRB5      30.26R
$$

TNZ061-075-076-078-094-096-097-251400-
SOUTH MIDDLE TENNESSEE

CITY           SKY/WX    TMP DP  RH WIND       PRES   REMARKS
FAYETTEVILLE   SUNNY     77  73  88 S6        30.20S
TULLAHOMA      MOSUNNY   75  72  88 SE3       30.22S
WINCHESTER     MOSUNNY   77  72  83 E5        30.21S
MCMINNVILLE    SUNNY     77  77 100 CALM      30.20F
COLUMBIA       SUNNY    N/A N/A N/A CALM      30.16S
SHELBYVILLE    SUNNY     81  75  83 S3        30.20R
$$

TNZ017-018-042-046-047-251400-
NORTHEAST TENNESSEE

CITY           SKY/WX    TMP DP  RH WIND       PRES   REMARKS
TRI CITIES     PTSUNNY   70  68  93 CALM      30.25R
ELIZABETHTON   CLOUDY    72  68  88 CALM      30.24S
$$

TNZ012-013-036-069-073-074-251400-
CENTRAL EAST TENNESSEE

CITY           SKY/WX    TMP DP  RH WIND       PRES   REMARKS
KNOXVILLE      MOSUNNY   77  70  79 SW3       30.21R
OAK RIDGE      SUNNY     77  71  82 SW3       30.23R
GATLINBURG     MOSUNNY   75  70  83 CALM      30.22S
MORRISTOWN     SUNNY     75  72  88 CALM      30.23R
$$

TNZ083-085-099-251400-
SOUTHEAST TENNESSEE

CITY           SKY/WX    TMP DP  RH WIND       PRES   REMARKS
CHATTANOOGA    PTSUNNY   77  71  82 S5        30.22R
$$

SKY/WX REPORTED AS FAIR MEANS FEW OR NO CLOUDS BELOW
12 THOUSAND FEET.





USA.gov is the U.S. government's official web portal to all federal, state and local government web resources and services.